Hourly Data Report for October 08, 2016

All times are specified in Local Standard Time (LST). Add 1 hour to adjust for Daylight Saving Time where and when it is observed.

KUGLUKTUK A
NUNAVUT

67°49'00.000" N
115°08'38.000" W
22.60 m
2300903
71938
YCO

Download Data

Hourly Data (October 2016)
Hourly Data Report for October 8, 2016
Temp Definition
°C
Dew Point Temp Definition
°C
Rel Hum Definition
%
Wind Dir Definition
10's deg

Wind Spd Definition
km/h
Visibility Definition
km
Stn Press Definition
kPa
Hmdx Definition


Wind Chill Definition


Weather Definition


TIME
00:00 Legend Double Dagger -1.2 -2.3 92 23 14 16.1 102.69   -6 Snow Pellets
01:00 Legend Double Dagger -1.7 -2.5 94 23 17 8.1 102.69   -7 Snow Pellets
02:00 Legend Double Dagger -1.4 -2.0 96 24 17 4.8 102.68   -7 Snow
03:00 Legend Double Dagger -1.4 -2.0 96 26 18 4.8 102.67   -7 Snow
04:00 Legend Double Dagger -1.8 -2.2 97 25 14 0.8 102.69   -6 Moderate Snow
05:00 Legend Double Dagger -1.5 -1.8 98 27 14 0.8 102.67   -6 Moderate Snow
06:00 Legend Double Dagger -0.5 -1.4 94 34 13 2.4 102.65   -5 Snow
07:00 Legend Double Dagger -0.5 -1.8 91 33 10 9.7 102.63   -4 Snow
08:00 Legend Double Dagger -0.7 -2.8 86 35 16 19.3 102.61   -5 Snow
09:00 Legend Double Dagger -1.4 -2.8 90 33 18 12.9 102.59   -7 Freezing Drizzle,Snow Showers
10:00 Legend Double Dagger -2.1 -3.4 91 27 10 16.1 102.59   -6 Snow Showers
11:00 Legend Double Dagger -2.3 -3.0 95 26 14 12.9 102.59   -7 Snow Showers
12:00 Legend Double Dagger -2.1 -3.8 88 25 12 6.4 102.57   -6 Snow Showers
13:00 Legend Double Dagger -1.8 -3.4 89 24 13 16.1 102.53   -6 Snow Showers
14:00 Legend Double Dagger -2.1 -3.4 91 24 16 19.3 102.51   -7 Snow Showers
15:00 Legend Double Dagger -1.5 -4.5 80 27 8 24.1 102.50   -5 Snow Showers
16:00 Legend Double Dagger -2.2 -4.7 83 26 11 24.1 102.49   -6 LegendNANA
17:00 Legend Double Dagger -2.7 -4.7 86 27 14 24.1 102.47   -8 Cloudy
18:00 Legend Double Dagger -2.6 -4.5 87 27 15 19.3 102.45   -8 Snow Showers
19:00 Legend Double Dagger -2.5 -4.1 89 26 14 19.3 102.43   -7 Snow Showers
20:00 Legend Double Dagger -2.8 -4.1 91 27 13 9.7 102.39   -7 Snow Showers
21:00 Legend Double Dagger -4.0 -5.0 93 27 16 12.9 102.38   -10 Snow Showers
22:00 Legend Double Dagger -3.7 -4.8 92 27 15 16.1 102.39   -9 Snow Showers
23:00 Legend Double Dagger -3.9 -5.2 91 26 15 16.1 102.38   -9 Snow Showers

Notes on Data Quality.

Legend

  • E = Estimated
  • M = Missing
  • NA = Not Available
  • ‡ = Partner data that is not subject to review by the National Climate Archives
Date modified: